Time,TemperatureF,DewpointF,PressureIn,WindDirection,WindDirectionDegrees,WindSpeedMPH,WindSpeedGustMPH,Humidity,HourlyPrecipIn,Conditions,Clouds,dailyrainin,SolarRadiationWatts/m^2,SoftwareType,DateUTC
2013-05-19 00:00:00,76.7,74.5,29.82,SE,127,2.2,7.2,93,0.00,,---,0.01,0.00,VWS V14.01,2013-05-19 05:00:00,
2013-05-19 00:01:00,76.7,74.5,29.82,SE,127,2.2,7.2,93,0.00,,---,0.01,,VWS V14.01,2013-05-19 05:01:00,
2013-05-19 00:05:00,76.8,74.6,29.82,East,98,2.2,6.2,93,0.00,,---,0.00,0.00,VWS V14.01,2013-05-19 05:05:00,
2013-05-19 00:06:00,76.8,74.6,29.82,East,98,2.2,6.2,93,0.00,,---,0.00,,VWS V14.01,2013-05-19 05:06:00,
2013-05-19 00:10:00,76.8,74.6,29.82,SE,140,2.2,6.2,93,0.00,,---,0.00,0.00,VWS V14.01,2013-05-19 05:10:00,
2013-05-19 00:11:00,76.8,74.6,29.82,SE,140,3.2,6.2,93,0.00,,---,0.00,,VWS V14.01,2013-05-19 05:11:00,
2013-05-19 00:15:00,76.8,74.6,29.82,SSE,163,4.2,8.2,93,0.00,,---,0.00,0.00,VWS V14.01,2013-05-19 05:15:00,
2013-05-19 00:16:00,76.8,74.6,29.82,SSE,166,3.2,8.2,93,0.00,,---,0.00,,VWS V14.01,2013-05-19 05:16:00,
2013-05-19 00:20:00,76.7,74.5,29.82,South,185,4.2,7.2,93,0.00,,---,0.00,0.00,VWS V14.01,2013-05-19 05:20:00,
2013-05-19 00:21:00,76.7,74.5,29.82,East,94,2.2,7.2,93,0.00,,---,0.00,,VWS V14.01,2013-05-19 05:21:00,
2013-05-19 00:25:00,76.8,74.6,29.82,ESE,121,5.2,7.2,93,0.00,,---,0.00,0.00,VWS V14.01,2013-05-19 05:25:00,
2013-05-19 00:26:00,76.8,74.6,29.82,ESE,123,6.2,7.2,93,0.00,,---,0.00,,VWS V14.01,2013-05-19 05:26:00,
2013-05-19 00:30:00,76.8,74.6,29.81,ESE,112,2.2,11.2,93,0.00,,---,0.00,0.00,VWS V14.01,2013-05-19 05:30:00,
2013-05-19 00:31:00,76.8,74.6,29.81,ESE,113,2.2,11.2,93,0.00,,---,0.00,,VWS V14.01,2013-05-19 05:31:00,
2013-05-19 00:35:00,76.8,74.6,29.81,ESE,111,3.2,5.2,93,0.00,,---,0.00,0.00,VWS V14.01,2013-05-19 05:35:00,
2013-05-19 00:36:00,76.8,74.6,29.81,ESE,111,3.2,5.2,93,0.00,,---,0.00,,VWS V14.01,2013-05-19 05:36:00,
2013-05-19 00:40:00,76.8,74.6,29.81,ESE,103,4.2,7.2,93,0.00,,---,0.00,0.00,VWS V14.01,2013-05-19 05:40:00,
2013-05-19 00:41:00,76.8,74.6,29.81,East,96,6.2,7.2,93,0.00,,---,0.00,,VWS V14.01,2013-05-19 05:41:00,
2013-05-19 00:45:00,76.7,74.5,29.81,ESE,102,3.2,6.2,93,0.00,,---,0.00,0.00,VWS V14.01,2013-05-19 05:45:00,
2013-05-19 00:46:00,76.8,74.6,29.81,ESE,103,3.2,6.2,93,0.00,,---,0.00,,VWS V14.01,2013-05-19 05:46:00,
2013-05-19 00:50:00,76.8,74.6,29.81,East,97,3.2,7.2,93,0.00,,---,0.00,0.00,VWS V14.01,2013-05-19 05:50:00,
2013-05-19 00:51:00,76.8,74.6,29.81,East,97,3.2,7.2,93,0.00,,---,0.00,,VWS V14.01,2013-05-19 05:51:00,
2013-05-19 00:55:00,76.7,74.5,29.81,East,84,5.2,7.2,93,0.00,,---,0.00,0.00,VWS V14.01,2013-05-19 05:55:00,
2013-05-19 00:56:00,76.7,74.5,29.81,East,89,5.2,7.2,93,0.00,,---,0.00,,VWS V14.01,2013-05-19 05:56:00,
2013-05-19 01:00:00,76.7,74.5,29.80,SSE,162,1.2,9.2,93,0.00,,---,0.00,0.00,VWS V14.01,2013-05-19 06:00:00,
2013-05-19 01:01:00,76.7,74.5,29.80,SSE,162,3.2,9.2,93,0.00,,---,0.00,,VWS V14.01,2013-05-19 06:01:00,
2013-05-19 01:05:00,76.8,74.6,29.80,ENE,61,3.2,8.2,93,0.00,,---,0.00,0.00,VWS V14.01,2013-05-19 06:05:00,
2013-05-19 01:06:00,76.8,74.6,29.80,East,100,2.2,8.2,93,0.00,,---,0.00,,VWS V14.01,2013-05-19 06:06:00,
2013-05-19 01:10:00,76.7,74.5,29.80,East,91,5.2,6.2,93,0.00,,---,0.00,0.00,VWS V14.01,2013-05-19 06:10:00,
2013-05-19 01:11:00,76.7,74.5,29.80,East,86,4.2,6.2,93,0.00,,---,0.00,,VWS V14.01,2013-05-19 06:11:00,
2013-05-19 01:15:00,76.8,74.6,29.80,ESE,103,2.2,7.2,93,0.00,,---,0.00,0.00,VWS V14.01,2013-05-19 06:15:00,
2013-05-19 01:16:00,76.8,74.6,29.80,East,97,3.2,7.2,93,0.00,,---,0.00,,VWS V14.01,2013-05-19 06:16:00,
2013-05-19 01:20:00,76.8,74.6,29.80,ESE,117,4.2,8.2,93,0.00,,---,0.00,0.00,VWS V14.01,2013-05-19 06:20:00,
2013-05-19 01:21:00,76.8,74.6,29.80,SE,126,6.2,8.2,93,0.00,,---,0.00,,VWS V14.01,2013-05-19 06:21:00,
2013-05-19 01:25:00,76.8,74.9,29.80,SE,144,3.2,8.2,94,0.00,,---,0.00,0.00,VWS V14.01,2013-05-19 06:25:00,
2013-05-19 01:26:00,76.8,74.9,29.80,ENE,70,2.2,8.2,94,0.00,,---,0.00,,VWS V14.01,2013-05-19 06:26:00,
2013-05-19 01:30:00,76.8,74.9,29.79,ESE,110,3.2,7.2,94,0.00,,---,0.00,0.00,VWS V14.01,2013-05-19 06:30:00,
2013-05-19 01:31:00,76.8,74.9,29.79,East,86,4.2,7.2,94,0.00,,---,0.00,,VWS V14.01,2013-05-19 06:31:00,
2013-05-19 01:35:00,76.8,74.9,29.79,SE,134,1.2,7.2,94,0.00,,---,0.00,0.00,VWS V14.01,2013-05-19 06:35:00,
2013-05-19 01:36:00,76.8,74.9,29.79,SE,134,2.2,7.2,94,0.00,,---,0.00,,VWS V14.01,2013-05-19 06:36:00,
2013-05-19 01:40:00,76.8,74.9,29.79,SSE,152,3.2,6.2,94,0.00,,---,0.00,0.00,VWS V14.01,2013-05-19 06:40:00,
2013-05-19 01:41:00,76.8,74.9,29.79,ESE,115,2.2,6.2,94,0.00,,---,0.00,,VWS V14.01,2013-05-19 06:41:00,
2013-05-19 01:45:00,76.8,74.9,29.78,SE,134,2.2,8.2,94,0.00,,---,0.00,0.00,VWS V14.01,2013-05-19 06:45:00,
2013-05-19 01:46:00,76.8,74.9,29.78,SE,138,5.2,8.2,94,0.00,,---,0.00,,VWS V14.01,2013-05-19 06:46:00,
2013-05-19 01:50:00,76.8,74.9,29.78,East,87,6.2,7.2,94,0.00,,---,0.00,0.00,VWS V14.01,2013-05-19 06:50:00,
2013-05-19 01:51:00,76.8,74.9,29.78,ESE,119,3.2,7.2,94,0.00,,---,0.00,,VWS V14.01,2013-05-19 06:51:00,
2013-05-19 01:55:00,76.8,74.9,29.78,SSE,151,3.2,10.2,94,0.00,,---,0.00,0.00,VWS V14.01,2013-05-19 06:55:00,
2013-05-19 01:56:00,76.8,74.9,29.78,SSE,151,2.2,10.2,94,0.00,,---,0.00,,VWS V14.01,2013-05-19 06:56:00,
2013-05-19 02:00:00,76.8,74.9,29.78,ESE,102,2.2,10.2,94,0.00,,---,0.00,0.00,VWS V14.01,2013-05-19 07:00:00,
2013-05-19 02:01:00,76.8,74.9,29.78,East,101,5.2,10.2,94,0.00,,---,0.00,,VWS V14.01,2013-05-19 07:01:00,
2013-05-19 02:05:00,76.8,74.9,29.78,ESE,105,2.2,8.2,94,0.00,,---,0.00,0.00,VWS V14.01,2013-05-19 07:05:00,
2013-05-19 02:06:00,76.8,74.9,29.78,ESE,105,5.2,8.2,94,0.00,,---,0.00,,VWS V14.01,2013-05-19 07:06:00,
2013-05-19 02:10:00,76.8,75.3,29.78,ESE,111,2.2,7.2,95,0.00,,---,0.00,0.00,VWS V14.01,2013-05-19 07:10:00,
2013-05-19 02:11:00,76.8,75.3,29.78,ESE,112,3.2,7.2,95,0.00,,---,0.00,,VWS V14.01,2013-05-19 07:11:00,
2013-05-19 02:15:00,76.8,75.3,29.76,ESE,115,3.2,8.2,95,0.00,,---,0.00,0.00,VWS V14.01,2013-05-19 07:15:00,
2013-05-19 02:16:00,76.8,75.3,29.76,ESE,115,5.2,8.2,95,0.00,,---,0.00,,VWS V14.01,2013-05-19 07:16:00,
2013-05-19 02:20:00,76.8,75.3,29.76,ESE,103,3.2,7.2,95,0.00,,---,0.00,0.00,VWS V14.01,2013-05-19 07:20:00,
2013-05-19 02:21:00,76.8,75.3,29.76,ESE,103,5.2,7.2,95,0.00,,---,0.00,,VWS V14.01,2013-05-19 07:21:00,
2013-05-19 02:25:00,76.8,75.3,29.76,East,80,4.2,8.2,95,0.00,,---,0.00,0.00,VWS V14.01,2013-05-19 07:25:00,
2013-05-19 02:26:00,76.8,75.3,29.76,East,80,4.2,8.2,95,0.00,,---,0.00,,VWS V14.01,2013-05-19 07:26:00,
2013-05-19 02:30:00,76.7,75.2,29.76,ESE,117,4.2,10.2,95,0.00,,---,0.00,0.00,VWS V14.01,2013-05-19 07:30:00,
2013-05-19 02:31:00,76.7,75.2,29.76,ESE,119,4.2,10.2,95,0.00,,---,0.00,,VWS V14.01,2013-05-19 07:31:00,
2013-05-19 02:35:00,76.7,75.2,29.76,SE,146,6.2,7.2,95,0.00,,---,0.00,0.00,VWS V14.01,2013-05-19 07:35:00,
2013-05-19 02:36:00,76.7,75.2,29.76,East,98,4.2,7.2,95,0.00,,---,0.00,,VWS V14.01,2013-05-19 07:36:00,
2013-05-19 02:40:00,76.7,75.2,29.76,SSE,149,3.2,8.2,95,0.00,,---,0.00,0.00,VWS V14.01,2013-05-19 07:40:00,
2013-05-19 02:41:00,76.7,75.2,29.76,ESE,102,3.2,8.2,95,0.00,,---,0.00,,VWS V14.01,2013-05-19 07:41:00,
2013-05-19 02:45:00,76.7,75.2,29.76,ESE,109,2.2,8.2,95,0.00,,---,0.00,0.00,VWS V14.01,2013-05-19 07:45:00,
2013-05-19 02:46:00,76.7,75.2,29.76,ESE,109,4.2,8.2,95,0.00,,---,0.00,,VWS V14.01,2013-05-19 07:46:00,
2013-05-19 02:50:00,76.7,75.2,29.76,SE,144,3.2,7.2,95,0.00,,---,0.00,0.00,VWS V14.01,2013-05-19 07:50:00,
2013-05-19 02:51:00,76.7,75.2,29.76,ENE,58,6.2,7.2,95,0.00,,---,0.00,,VWS V14.01,2013-05-19 07:51:00,
2013-05-19 02:55:00,76.7,75.2,29.76,SSW,204,3.2,8.2,95,0.00,,---,0.00,0.00,VWS V14.01,2013-05-19 07:55:00,
2013-05-19 02:56:00,76.7,75.2,29.76,ENE,75,2.2,8.2,95,0.00,,---,0.00,,VWS V14.01,2013-05-19 07:56:00,
2013-05-19 03:00:00,76.7,75.2,29.76,ESE,119,4.2,11.2,95,0.00,,---,0.00,0.00,VWS V14.01,2013-05-19 08:00:00,
2013-05-19 03:01:00,76.7,75.2,29.76,SSW,192,4.2,11.2,95,0.00,,---,0.00,,VWS V14.01,2013-05-19 08:01:00,
2013-05-19 03:05:00,76.7,75.2,29.76,ESE,108,4.2,12.2,95,0.00,,---,0.00,0.00,VWS V14.01,2013-05-19 08:05:00,
2013-05-19 03:06:00,76.7,75.2,29.76,SSE,163,1.2,12.2,95,0.00,,---,0.00,,VWS V14.01,2013-05-19 08:06:00,
2013-05-19 03:10:00,76.7,75.2,29.76,NE,56,3.2,6.2,95,0.00,,---,0.00,,VWS V14.01,2013-05-19 08:10:00,
2013-05-19 03:15:00,76.7,75.2,29.76,SSE,159,6.2,7.2,95,0.00,,---,0.00,,VWS V14.01,2013-05-19 08:15:00,
2013-05-19 03:20:00,76.7,75.2,29.76,ESE,116,4.2,10.2,95,0.00,,---,0.00,,VWS V14.01,2013-05-19 08:20:00,
2013-05-19 03:25:00,76.7,75.2,29.76,ESE,110,3.2,7.2,95,0.00,,---,0.00,,VWS V14.01,2013-05-19 08:25:00,
2013-05-19 03:30:00,76.7,75.2,29.76,SSW,204,6.2,8.2,95,0.00,,---,0.00,,VWS V14.01,2013-05-19 08:30:00,
2013-05-19 03:35:00,76.7,75.2,29.76,East,88,2.2,10.2,95,0.00,,---,0.00,,VWS V14.01,2013-05-19 08:35:00,
2013-05-19 03:40:00,76.8,75.3,29.76,SSE,148,5.2,6.2,95,0.00,,---,0.00,,VWS V14.01,2013-05-19 08:40:00,
2013-05-19 03:45:00,76.8,75.3,29.76,South,183,7.2,10.2,95,0.00,,---,0.00,,VWS V14.01,2013-05-19 08:45:00,
2013-05-19 03:50:00,76.8,75.3,29.76,SE,143,2.2,15.2,95,0.00,,---,0.00,,VWS V14.01,2013-05-19 08:50:00,
2013-05-19 03:55:00,76.8,75.3,29.76,ENE,74,5.2,7.2,95,0.00,,---,0.00,,VWS V14.01,2013-05-19 08:55:00,
2013-05-19 04:00:00,76.8,75.3,29.76,SE,132,2.2,7.2,95,0.00,,---,0.00,,VWS V14.01,2013-05-19 09:00:00,
2013-05-19 04:05:00,76.8,75.3,29.76,East,90,7.2,8.2,95,0.00,,---,0.00,,VWS V14.01,2013-05-19 09:05:00,
2013-05-19 04:10:00,76.8,75.3,29.76,SSE,168,2.2,13.2,95,0.00,,---,0.00,,VWS V14.01,2013-05-19 09:10:00,
2013-05-19 04:15:00,76.8,75.3,29.75,SSE,160,5.2,11.2,95,0.00,,---,0.00,,VWS V14.01,2013-05-19 09:15:00,
2013-05-19 04:20:00,77.0,75.1,29.75,NNE,19,4.2,11.2,94,0.00,,---,0.00,,VWS V14.01,2013-05-19 09:20:00,
2013-05-19 04:25:00,77.0,75.1,29.75,East,87,6.2,14.2,94,0.00,,---,0.00,,VWS V14.01,2013-05-19 09:25:00,
2013-05-19 04:30:00,77.0,75.1,29.75,SSE,161,2.2,8.2,94,0.00,,---,0.00,,VWS V14.01,2013-05-19 09:30:00,
2013-05-19 04:35:00,77.0,75.1,29.75,ESE,109,2.2,11.2,94,0.00,,---,0.00,,VWS V14.01,2013-05-19 09:35:00,
2013-05-19 04:40:00,77.0,75.1,29.75,SE,125,4.2,8.2,94,0.00,,---,0.00,,VWS V14.01,2013-05-19 09:40:00,
2013-05-19 04:45:00,77.0,75.5,29.75,SSW,211,4.2,10.2,95,0.00,,---,0.00,,VWS V14.01,2013-05-19 09:45:00,
2013-05-19 04:50:00,76.8,75.3,29.75,ESE,121,5.2,9.2,95,0.00,,---,0.00,,VWS V14.01,2013-05-19 09:50:00,
2013-05-19 04:55:00,76.8,75.3,29.75,SE,130,3.2,11.2,95,0.00,,---,0.00,,VWS V14.01,2013-05-19 09:55:00,
2013-05-19 05:00:00,76.7,75.2,29.75,SSE,149,4.2,10.2,95,0.00,,---,0.00,,VWS V14.01,2013-05-19 10:00:00,
2013-05-19 05:05:00,76.5,75.0,29.75,South,171,1.2,8.2,95,0.00,,---,0.00,,VWS V14.01,2013-05-19 10:05:00,
2013-05-19 05:10:00,76.5,75.0,29.75,ESE,106,2.2,7.2,95,0.00,,---,0.00,,VWS V14.01,2013-05-19 10:10:00,
2013-05-19 05:15:00,76.5,75.0,29.75,South,178,2.2,8.2,95,0.00,,---,0.00,,VWS V14.01,2013-05-19 10:15:00,
2013-05-19 05:20:00,76.5,75.0,29.75,SE,145,2.2,8.2,95,0.00,,---,0.00,,VWS V14.01,2013-05-19 10:20:00,
2013-05-19 05:25:00,76.5,75.3,29.75,South,172,1.2,8.2,96,0.00,,---,0.00,,VWS V14.01,2013-05-19 10:25:00,
2013-05-19 05:30:00,76.5,75.3,29.75,ESE,112,3.2,9.2,96,0.00,,---,0.00,,VWS V14.01,2013-05-19 10:30:00,
2013-05-19 05:35:00,76.5,75.3,29.75,SE,128,7.2,10.2,96,0.00,,---,0.00,,VWS V14.01,2013-05-19 10:35:00,
2013-05-19 05:40:00,76.5,75.3,29.75,NNE,16,5.2,8.2,96,0.00,,---,0.00,,VWS V14.01,2013-05-19 10:40:00,
2013-05-19 05:45:00,76.5,75.3,29.75,NE,49,3.2,10.2,96,0.00,,---,0.00,,VWS V14.01,2013-05-19 10:45:00,
2013-05-19 05:50:00,76.7,75.5,29.75,South,180,4.2,10.2,96,0.00,,---,0.00,,VWS V14.01,2013-05-19 10:50:00,
2013-05-19 05:55:00,76.7,75.5,29.75,South,183,7.2,10.2,96,0.00,,---,0.00,,VWS V14.01,2013-05-19 10:55:00,
2013-05-19 06:00:00,76.7,75.5,29.75,South,176,9.2,12.2,96,0.00,,---,0.00,,VWS V14.01,2013-05-19 11:00:00,
2013-05-19 06:05:00,76.7,75.5,29.75,ESE,123,3.2,8.2,96,0.00,,---,0.00,,VWS V14.01,2013-05-19 11:05:00,
2013-05-19 06:10:00,76.7,75.5,29.75,NE,41,7.2,7.2,96,0.00,,---,0.00,,VWS V14.01,2013-05-19 11:10:00,
2013-05-19 06:15:00,76.7,75.5,29.75,SSE,153,4.2,11.2,96,0.00,,---,0.00,,VWS V14.01,2013-05-19 11:15:00,
2013-05-19 06:20:00,76.7,75.5,29.75,ESE,107,3.2,11.2,96,0.00,,---,0.00,,VWS V14.01,2013-05-19 11:20:00,
2013-05-19 06:25:00,76.7,75.5,29.75,SSE,156,1.2,11.2,96,0.00,,---,0.00,,VWS V14.01,2013-05-19 11:25:00,
2013-05-19 06:30:00,76.7,75.2,29.76,South,178,1.2,11.2,95,0.00,,---,0.00,,VWS V14.01,2013-05-19 11:30:00,
2013-05-19 06:35:00,76.7,75.2,29.76,SE,124,4.2,10.2,95,0.00,,---,0.00,,VWS V14.01,2013-05-19 11:35:00,
2013-05-19 06:40:00,76.7,75.2,29.76,SE,136,3.2,7.2,95,0.00,,---,0.00,,VWS V14.01,2013-05-19 11:40:00,
2013-05-19 06:45:00,76.7,75.2,29.75,SE,134,2.2,10.2,95,0.00,,---,0.00,,VWS V14.01,2013-05-19 11:45:00,
2013-05-19 06:50:00,76.7,75.2,29.75,SSE,147,5.2,11.2,95,0.00,,---,0.00,,VWS V14.01,2013-05-19 11:50:00,
2013-05-19 06:55:00,76.7,75.2,29.75,South,188,3.2,7.2,95,0.00,,---,0.00,,VWS V14.01,2013-05-19 11:55:00,
2013-05-19 07:00:00,76.7,75.2,29.76,ESE,115,4.2,7.2,95,0.00,,---,0.00,,VWS V14.01,2013-05-19 12:00:00,
2013-05-19 07:05:00,76.7,75.2,29.76,SSE,165,1.2,5.2,95,0.00,,---,0.00,,VWS V14.01,2013-05-19 12:05:00,
2013-05-19 07:10:00,76.7,75.2,29.76,SSW,200,2.2,14.2,95,0.00,,---,0.00,,VWS V14.01,2013-05-19 12:10:00,
2013-05-19 07:15:00,76.7,75.2,29.78,South,171,3.2,6.2,95,0.00,,---,0.00,,VWS V14.01,2013-05-19 12:15:00,
2013-05-19 07:20:00,76.7,75.2,29.78,SSE,158,2.2,8.2,95,0.00,,---,0.00,,VWS V14.01,2013-05-19 12:20:00,
2013-05-19 07:25:00,76.7,75.2,29.78,East,79,7.2,11.2,95,0.00,,---,0.00,,VWS V14.01,2013-05-19 12:25:00,
2013-05-19 07:30:00,76.7,75.2,29.76,SE,142,6.2,7.2,95,0.00,,---,0.00,,VWS V14.01,2013-05-19 12:30:00,
2013-05-19 07:35:00,76.7,75.2,29.76,East,101,3.2,6.2,95,0.00,,---,0.00,,VWS V14.01,2013-05-19 12:35:00,
2013-05-19 07:40:00,76.7,75.2,29.76,SSE,157,5.2,11.2,95,0.00,,---,0.00,,VWS V14.01,2013-05-19 12:40:00,
2013-05-19 07:45:00,76.7,75.2,29.76,ESE,107,3.2,11.2,95,0.00,,---,0.00,,VWS V14.01,2013-05-19 12:45:00,
2013-05-19 07:50:00,76.8,75.3,29.76,SSE,151,8.2,8.2,95,0.00,,---,0.00,,VWS V14.01,2013-05-19 12:50:00,
2013-05-19 07:55:00,76.8,75.3,29.76,East,91,4.2,6.2,95,0.00,,---,0.00,,VWS V14.01,2013-05-19 12:55:00,
2013-05-19 08:00:00,77.0,75.5,29.77,ESE,113,2.2,8.2,95,0.00,,---,0.00,,VWS V14.01,2013-05-19 13:00:00,
2013-05-19 08:05:00,77.0,75.5,29.77,ESE,116,5.2,7.2,95,0.00,,---,0.00,,VWS V14.01,2013-05-19 13:05:00,
2013-05-19 08:10:00,77.4,75.9,29.77,SE,135,1.2,12.2,95,0.00,,---,0.00,,VWS V14.01,2013-05-19 13:10:00,
2013-05-19 08:15:00,77.6,75.7,29.78,ESE,122,2.2,7.2,94,0.00,,---,0.00,,VWS V14.01,2013-05-19 13:15:00,
2013-05-19 08:20:00,77.7,75.8,29.78,SSE,163,5.2,7.2,94,0.00,,---,0.00,,VWS V14.01,2013-05-19 13:20:00,
2013-05-19 08:25:00,78.1,75.9,29.78,ESE,111,5.2,11.2,93,0.00,,---,0.00,,VWS V14.01,2013-05-19 13:25:00,
2013-05-19 08:30:00,78.1,75.6,29.77,ESE,103,4.2,10.2,92,0.00,,---,0.00,,VWS V14.01,2013-05-19 13:30:00,
2013-05-19 08:35:00,78.5,76.0,29.77,East,85,3.2,7.2,92,0.00,,---,0.00,,VWS V14.01,2013-05-19 13:35:00,
2013-05-19 08:40:00,78.5,76.0,29.77,East,81,5.2,9.2,92,0.00,,---,0.00,,VWS V14.01,2013-05-19 13:40:00,
2013-05-19 08:45:00,78.5,76.0,29.78,SE,124,5.2,8.2,92,0.00,,---,0.00,,VWS V14.01,2013-05-19 13:45:00,
2013-05-19 08:50:00,78.5,75.7,29.78,SSE,158,5.2,11.2,91,0.00,,---,0.00,,VWS V14.01,2013-05-19 13:50:00,
2013-05-19 08:55:00,78.5,75.7,29.78,ESE,107,1.2,10.2,91,0.00,,---,0.00,,VWS V14.01,2013-05-19 13:55:00,
2013-05-19 09:00:00,78.6,75.8,29.78,ESE,105,4.2,7.2,91,0.00,,---,0.00,,VWS V14.01,2013-05-19 14:00:00,
2013-05-19 09:05:00,78.5,75.7,29.78,East,94,3.2,12.2,91,0.00,,---,0.00,,VWS V14.01,2013-05-19 14:05:00,
2013-05-19 09:10:00,78.6,75.8,29.78,SE,124,5.2,10.2,91,0.00,,---,0.00,,VWS V14.01,2013-05-19 14:10:00,
2013-05-19 09:15:00,78.6,75.8,29.78,East,101,2.2,8.2,91,0.00,,---,0.00,,VWS V14.01,2013-05-19 14:15:00,
2013-05-19 09:20:00,79.0,75.8,29.78,ESE,121,5.2,11.2,90,0.00,,---,0.00,,VWS V14.01,2013-05-19 14:20:00,
2013-05-19 09:25:00,79.0,75.8,29.78,ESE,109,3.2,8.2,90,0.00,,---,0.00,,VWS V14.01,2013-05-19 14:25:00,
2013-05-19 09:30:00,79.4,75.9,29.78,ESE,115,4.2,7.2,89,0.00,,---,0.00,,VWS V14.01,2013-05-19 14:30:00,
2013-05-19 09:35:00,79.2,75.7,29.78,SSW,199,3.2,12.2,89,0.00,,---,0.00,,VWS V14.01,2013-05-19 14:35:00,
2013-05-19 09:40:00,79.2,75.7,29.78,East,93,5.2,11.2,89,0.00,,---,0.00,,VWS V14.01,2013-05-19 14:40:00,
2013-05-19 09:45:00,78.8,75.3,29.78,SSW,202,4.2,13.2,89,0.00,,---,0.00,,VWS V14.01,2013-05-19 14:45:00,
2013-05-19 09:50:00,79.0,75.8,29.78,East,94,5.2,10.2,90,0.00,,---,0.00,,VWS V14.01,2013-05-19 14:50:00,
2013-05-19 09:55:00,79.2,75.7,29.78,WSW,250,5.2,10.2,89,0.00,,---,0.00,,VWS V14.01,2013-05-19 14:55:00,
2013-05-19 10:00:00,79.2,75.7,29.78,SSE,156,3.2,10.2,89,0.00,,---,0.00,,VWS V14.01,2013-05-19 15:00:00,
2013-05-19 10:05:00,79.4,75.9,29.77,East,94,6.2,10.2,89,0.00,,---,0.00,,VWS V14.01,2013-05-19 15:05:00,
2013-05-19 10:10:00,79.2,75.3,29.77,ESE,106,5.2,11.2,88,0.00,,---,0.00,,VWS V14.01,2013-05-19 15:10:00,
2013-05-19 10:15:00,79.6,75.7,29.77,ENE,78,4.2,12.2,88,0.00,,---,0.00,,VWS V14.01,2013-05-19 15:15:00,
2013-05-19 10:20:00,79.8,75.9,29.78,ESE,121,4.2,10.2,88,0.00,,---,0.00,,VWS V14.01,2013-05-19 15:20:00,
2013-05-19 10:25:00,79.8,75.9,29.78,East,101,5.2,10.2,88,0.00,,---,0.00,,VWS V14.01,2013-05-19 15:25:00,
2013-05-19 10:30:00,79.6,75.4,29.78,South,185,8.2,10.2,87,0.00,,---,0.00,,VWS V14.01,2013-05-19 15:30:00,
2013-05-19 10:35:00,79.9,75.7,29.78,South,171,1.2,7.2,87,0.00,,---,0.00,,VWS V14.01,2013-05-19 15:35:00,
2013-05-19 10:40:00,79.9,75.3,29.78,ESE,123,4.2,10.2,86,0.00,,---,0.00,,VWS V14.01,2013-05-19 15:40:00,
2013-05-19 10:45:00,79.9,75.3,29.78,East,83,4.2,14.2,86,0.00,,---,0.00,,VWS V14.01,2013-05-19 15:45:00,
2013-05-19 10:50:00,80.1,75.5,29.78,East,100,5.2,13.2,86,0.00,,---,0.00,,VWS V14.01,2013-05-19 15:50:00,
2013-05-19 10:55:00,80.1,75.5,29.78,ESE,111,5.2,12.2,86,0.00,,---,0.00,,VWS V14.01,2013-05-19 15:55:00,
2013-05-19 11:00:00,80.1,75.5,29.78,South,174,5.2,13.2,86,0.00,,---,0.00,,VWS V14.01,2013-05-19 16:00:00,
2013-05-19 11:05:00,80.3,75.7,29.78,SSE,155,6.2,10.2,86,0.00,,---,0.00,,VWS V14.01,2013-05-19 16:05:00,
2013-05-19 11:10:00,80.5,75.6,29.78,SSE,159,5.2,13.2,85,0.00,,---,0.00,,VWS V14.01,2013-05-19 16:10:00,
2013-05-19 11:15:00,80.3,75.7,29.78,East,96,4.2,8.2,86,0.00,,---,0.00,,VWS V14.01,2013-05-19 16:15:00,
2013-05-19 11:20:00,80.3,75.7,29.78,East,86,7.2,15.2,86,0.00,,---,0.00,,VWS V14.01,2013-05-19 16:20:00,
2013-05-19 11:25:00,80.3,75.7,29.78,SSE,161,6.2,14.2,86,0.00,,---,0.00,,VWS V14.01,2013-05-19 16:25:00,
2013-05-19 11:30:00,80.1,75.5,29.78,SSE,165,5.2,12.2,86,0.00,,---,0.00,,VWS V14.01,2013-05-19 16:30:00,
2013-05-19 11:35:00,80.3,75.4,29.79,South,173,11.2,11.2,85,0.00,,---,0.00,,VWS V14.01,2013-05-19 16:35:00,
2013-05-19 11:40:00,80.5,75.6,29.79,South,188,13.2,16.2,85,0.00,,---,0.00,,VWS V14.01,2013-05-19 16:40:00,
2013-05-19 11:45:00,80.7,75.8,29.79,SSE,167,2.2,13.2,85,0.00,,---,0.00,,VWS V14.01,2013-05-19 16:45:00,
2013-05-19 11:50:00,80.5,75.2,29.79,SSE,163,7.2,19.2,84,0.00,,---,0.00,,VWS V14.01,2013-05-19 16:50:00,
2013-05-19 11:55:00,80.7,75.8,29.79,South,181,6.2,13.2,85,0.00,,---,0.00,,VWS V14.01,2013-05-19 16:55:00,
2013-05-19 12:00:00,81.2,75.9,29.79,SSW,196,6.2,11.2,84,0.00,,---,0.00,,VWS V14.01,2013-05-19 17:00:00,
2013-05-19 12:05:00,81.4,75.7,29.79,SSW,202,3.2,7.2,83,0.00,,---,0.00,,VWS V14.01,2013-05-19 17:05:00,
2013-05-19 12:10:00,81.2,75.6,29.79,SSE,165,4.2,12.2,83,0.00,,---,0.00,,VWS V14.01,2013-05-19 17:10:00,
2013-05-19 12:15:00,81.4,75.4,29.79,East,89,5.2,12.2,82,0.00,,---,0.00,,VWS V14.01,2013-05-19 17:15:00,
2013-05-19 12:20:00,81.8,75.8,29.78,ESE,115,5.2,19.2,82,0.00,,---,0.00,,VWS V14.01,2013-05-19 17:20:00,
2013-05-19 12:25:00,82.2,75.8,29.78,ESE,114,5.2,9.2,81,0.00,,---,0.00,,VWS V14.01,2013-05-19 17:25:00,
2013-05-19 12:30:00,82.2,75.8,29.78,ESE,123,6.2,14.2,81,0.00,,---,0.00,,VWS V14.01,2013-05-19 17:30:00,
2013-05-19 12:35:00,82.6,75.4,29.78,SSE,153,4.2,14.2,79,0.00,,---,0.00,,VWS V14.01,2013-05-19 17:35:00,
2013-05-19 12:40:00,82.6,75.8,29.78,ESE,123,6.2,10.2,80,0.00,,---,0.00,,VWS V14.01,2013-05-19 17:40:00,
2013-05-19 12:45:00,82.4,75.6,29.78,East,94,4.2,14.2,80,0.00,,---,0.00,,VWS V14.01,2013-05-19 17:45:00,
2013-05-19 12:50:00,82.6,75.8,29.77,South,177,5.2,15.2,80,0.00,,---,0.00,,VWS V14.01,2013-05-19 17:50:00,
2013-05-19 12:55:00,82.6,75.8,29.77,NE,55,12.2,14.2,80,0.00,,---,0.00,,VWS V14.01,2013-05-19 17:55:00,
2013-05-19 13:00:00,82.2,75.8,29.77,South,178,4.2,17.2,81,0.00,,---,0.00,,VWS V14.01,2013-05-19 18:00:00,
2013-05-19 13:05:00,82.8,76.0,29.76,South,186,5.2,12.2,80,0.00,,---,0.00,,VWS V14.01,2013-05-19 18:05:00,
2013-05-19 13:10:00,82.8,76.0,29.76,ENE,60,7.2,13.2,80,0.00,,---,0.00,,VWS V14.01,2013-05-19 18:10:00,
2013-05-19 13:15:00,82.8,75.6,29.76,SE,132,6.2,14.2,79,0.00,,---,0.00,,VWS V14.01,2013-05-19 18:15:00,
2013-05-19 13:20:00,82.8,76.0,29.76,SSE,149,10.2,16.2,80,0.00,,---,0.00,,VWS V14.01,2013-05-19 18:20:00,
2013-05-19 13:25:00,82.6,75.8,29.76,South,173,7.2,9.2,80,0.00,,---,0.00,,VWS V14.01,2013-05-19 18:25:00,
2013-05-19 13:30:00,82.6,76.2,29.76,SSE,157,4.2,18.2,81,0.00,,---,0.00,,VWS V14.01,2013-05-19 18:30:00,
2013-05-19 13:35:00,82.8,76.0,29.76,ESE,118,7.2,9.2,80,0.00,,---,0.00,,VWS V14.01,2013-05-19 18:35:00,
2013-05-19 13:40:00,82.8,76.0,29.76,South,184,4.2,14.2,80,0.00,,---,0.00,,VWS V14.01,2013-05-19 18:40:00,
2013-05-19 13:45:00,82.4,75.6,29.76,East,82,7.2,13.2,80,0.00,,---,0.00,,VWS V14.01,2013-05-19 18:45:00,
2013-05-19 13:50:00,82.4,76.0,29.76,South,177,4.2,8.2,81,0.00,,---,0.00,,VWS V14.01,2013-05-19 18:50:00,
2013-05-19 13:55:00,82.4,76.0,29.76,NNE,32,3.2,16.2,81,0.00,,---,0.00,,VWS V14.01,2013-05-19 18:55:00,
2013-05-19 14:00:00,82.6,76.2,29.76,SSE,163,5.2,13.2,81,0.00,,---,0.00,,VWS V14.01,2013-05-19 19:00:00,
2013-05-19 14:05:00,82.6,76.2,29.75,SE,136,4.2,12.2,81,0.00,,---,0.00,,VWS V14.01,2013-05-19 19:05:00,
2013-05-19 14:10:00,82.6,75.8,29.75,ESE,103,5.2,12.2,80,0.00,,---,0.00,,VWS V14.01,2013-05-19 19:10:00,
2013-05-19 14:15:00,82.4,76.0,29.75,East,88,3.2,13.2,81,0.00,,---,0.00,,VWS V14.01,2013-05-19 19:15:00,
2013-05-19 14:20:00,82.4,76.0,29.75,East,86,4.2,11.2,81,0.00,,---,0.00,,VWS V14.01,2013-05-19 19:20:00,
2013-05-19 14:25:00,82.8,76.4,29.75,SSW,197,5.2,12.2,81,0.00,,---,0.00,,VWS V14.01,2013-05-19 19:25:00,
2013-05-19 14:30:00,83.0,76.6,29.75,East,90,4.2,12.2,81,0.00,,---,0.00,,VWS V14.01,2013-05-19 19:30:00,
2013-05-19 14:35:00,83.2,76.4,29.74,East,101,7.2,8.2,80,0.00,,---,0.00,,VWS V14.01,2013-05-19 19:35:00,
2013-05-19 14:40:00,83.0,76.2,29.74,ESE,111,4.2,13.2,80,0.00,,---,0.00,,VWS V14.01,2013-05-19 19:40:00,
2013-05-19 14:45:00,82.8,76.4,29.74,East,101,3.2,13.2,81,0.00,,---,0.00,,VWS V14.01,2013-05-19 19:45:00,
2013-05-19 14:50:00,82.6,76.2,29.73,East,86,6.2,12.2,81,0.00,,---,0.00,,VWS V14.01,2013-05-19 19:50:00,
2013-05-19 14:55:00,82.8,76.4,29.73,SE,144,7.2,8.2,81,0.00,,---,0.00,,VWS V14.01,2013-05-19 19:55:00,
2013-05-19 15:00:00,82.6,75.8,29.73,East,82,4.2,8.2,80,0.00,,---,0.00,,VWS V14.01,2013-05-19 20:00:00,
2013-05-19 15:04:00,82.6,76.2,29.73,ENE,74,5.2,11.2,81,0.00,,---,0.00,,VWS V14.01,2013-05-19 20:04:00,
2013-05-19 15:05:00,82.6,76.2,29.73,ENE,60,4.2,11.2,81,0.00,,---,0.00,0.00,VWS V14.01,2013-05-19 20:05:00,
2013-05-19 15:09:00,82.4,76.0,29.73,SSW,193,5.2,13.2,81,0.00,,---,0.00,,VWS V14.01,2013-05-19 20:09:00,
2013-05-19 15:10:00,82.4,76.0,29.73,SSE,165,5.2,13.2,81,0.00,,---,0.00,0.00,VWS V14.01,2013-05-19 20:10:00,
2013-05-19 15:14:00,82.6,76.2,29.73,ESE,105,4.2,13.2,81,0.00,,---,0.00,,VWS V14.01,2013-05-19 20:14:00,
2013-05-19 15:15:00,82.6,76.2,29.73,ESE,115,4.2,13.2,81,0.00,,---,0.00,0.00,VWS V14.01,2013-05-19 20:15:00,
2013-05-19 15:19:00,82.6,76.2,29.73,East,90,6.2,11.2,81,0.00,,---,0.00,,VWS V14.01,2013-05-19 20:19:00,
2013-05-19 15:20:00,82.4,76.0,29.73,ESE,113,7.2,11.2,81,0.00,,---,0.00,0.00,VWS V14.01,2013-05-19 20:20:00,
2013-05-19 15:24:00,82.2,76.5,29.73,ESE,102,6.2,8.2,83,0.00,,---,0.00,,VWS V14.01,2013-05-19 20:24:00,
2013-05-19 15:25:00,82.4,76.4,29.73,SE,135,4.2,8.2,82,0.00,,---,0.00,0.00,VWS V14.01,2013-05-19 20:25:00,
2013-05-19 15:29:00,82.8,76.8,29.73,East,84,4.2,7.2,82,0.00,,---,0.00,,VWS V14.01,2013-05-19 20:29:00,
2013-05-19 15:30:00,82.8,76.4,29.72,SE,138,4.2,8.2,81,0.00,,---,0.00,0.00,VWS V14.01,2013-05-19 20:30:00,
2013-05-19 15:34:00,82.2,75.8,29.72,SE,129,2.2,14.2,81,0.00,,---,0.00,,VWS V14.01,2013-05-19 20:34:00,
2013-05-19 15:35:00,82.2,76.2,29.72,SSE,165,4.2,14.2,82,0.00,,---,0.00,0.00,VWS V14.01,2013-05-19 20:35:00,
2013-05-19 15:39:00,82.4,76.4,29.72,SW,216,4.2,10.2,82,0.00,,---,0.00,,VWS V14.01,2013-05-19 20:39:00,
2013-05-19 15:40:00,82.6,76.6,29.72,North,355,7.2,13.2,82,0.00,,---,0.00,0.00,VWS V14.01,2013-05-19 20:40:00,
2013-05-19 15:44:00,82.8,76.8,29.72,East,90,8.2,15.2,82,0.00,,---,0.00,,VWS V14.01,2013-05-19 20:44:00,
2013-05-19 15:45:00,82.8,76.4,29.72,East,96,5.2,15.2,81,0.00,,---,0.00,0.00,VWS V14.01,2013-05-19 20:45:00,
2013-05-19 15:49:00,82.6,76.2,29.72,SE,133,7.2,8.2,81,0.00,,---,0.00,,VWS V14.01,2013-05-19 20:49:00,
2013-05-19 15:50:00,82.6,76.2,29.72,ESE,123,1.2,8.2,81,0.00,,---,0.00,0.00,VWS V14.01,2013-05-19 20:50:00,
2013-05-19 15:54:00,83.0,76.6,29.72,ENE,68,3.2,5.2,81,0.00,,---,0.00,,VWS V14.01,2013-05-19 20:54:00,
2013-05-19 15:55:00,83.2,76.4,29.72,East,94,3.2,11.2,80,0.00,,---,0.00,0.00,VWS V14.01,2013-05-19 20:55:00,
2013-05-19 15:59:00,82.8,76.4,29.72,East,82,5.2,15.2,81,0.00,,---,0.00,,VWS V14.01,2013-05-19 20:59:00,
2013-05-19 16:00:00,82.8,76.4,29.71,SSE,152,8.2,15.2,81,0.00,,---,0.00,0.00,VWS V14.01,2013-05-19 21:00:00,
2013-05-19 16:04:00,82.6,76.2,29.71,East,91,7.2,11.2,81,0.00,,---,0.00,,VWS V14.01,2013-05-19 21:04:00,
2013-05-19 16:05:00,82.4,76.0,29.71,SSW,208,2.2,11.2,81,0.00,,---,0.00,0.00,VWS V14.01,2013-05-19 21:05:00,
2013-05-19 16:09:00,82.2,76.2,29.71,ESE,104,4.2,12.2,82,0.00,,---,0.00,,VWS V14.01,2013-05-19 21:09:00,
2013-05-19 16:10:00,82.0,76.0,29.71,SE,134,4.2,12.2,82,0.00,,---,0.00,0.00,VWS V14.01,2013-05-19 21:10:00,
2013-05-19 16:14:00,81.8,75.8,29.71,ENE,77,5.2,11.2,82,0.00,,---,0.00,,VWS V14.01,2013-05-19 21:14:00,
2013-05-19 16:15:00,81.8,76.1,29.70,SE,135,5.2,11.2,83,0.00,,---,0.00,0.00,VWS V14.01,2013-05-19 21:15:00,
2013-05-19 16:19:00,82.0,76.0,29.70,East,88,5.2,12.2,82,0.00,,---,0.00,,VWS V14.01,2013-05-19 21:19:00,
2013-05-19 16:20:00,81.8,76.1,29.70,East,84,5.2,12.2,83,0.00,,---,0.00,0.00,VWS V14.01,2013-05-19 21:20:00,
2013-05-19 16:24:00,81.8,76.1,29.70,SSE,151,3.2,10.2,83,0.00,,---,0.00,,VWS V14.01,2013-05-19 21:24:00,
2013-05-19 16:25:00,81.8,76.1,29.70,ENE,74,4.2,10.2,83,0.00,,---,0.00,0.00,VWS V14.01,2013-05-19 21:25:00,
2013-05-19 16:29:00,81.4,75.7,29.70,ESE,117,4.2,11.2,83,0.00,,---,0.00,,VWS V14.01,2013-05-19 21:29:00,
2013-05-19 16:30:00,81.4,76.1,29.70,East,86,2.2,11.2,84,0.00,,---,0.00,0.00,VWS V14.01,2013-05-19 21:30:00,
2013-05-19 16:34:00,81.6,76.3,29.70,East,90,5.2,7.2,84,0.00,,---,0.00,,VWS V14.01,2013-05-19 21:34:00,
2013-05-19 16:35:00,81.6,76.3,29.70,NE,55,4.2,7.2,84,0.00,,---,0.00,0.00,VWS V14.01,2013-05-19 21:35:00,
2013-05-19 16:39:00,81.6,76.3,29.70,ESE,107,7.2,11.2,84,0.00,,---,0.00,,VWS V14.01,2013-05-19 21:39:00,
2013-05-19 16:40:00,81.6,76.3,29.70,East,88,7.2,11.2,84,0.00,,---,0.00,0.00,VWS V14.01,2013-05-19 21:40:00,
2013-05-19 16:44:00,81.4,76.1,29.70,SE,126,3.2,10.2,84,0.00,,---,0.00,,VWS V14.01,2013-05-19 21:44:00,
2013-05-19 16:45:00,81.2,75.9,29.69,ENE,69,4.2,10.2,84,0.00,,---,0.00,0.00,VWS V14.01,2013-05-19 21:45:00,
2013-05-19 16:49:00,81.1,75.8,29.69,ESE,115,6.2,13.2,84,0.00,,---,0.00,,VWS V14.01,2013-05-19 21:49:00,
2013-05-19 16:50:00,81.1,75.8,29.69,ESE,105,7.2,13.2,84,0.00,,---,0.00,0.00,VWS V14.01,2013-05-19 21:50:00,
2013-05-19 16:54:00,80.9,76.0,29.69,SE,136,6.2,12.2,85,0.00,,---,0.00,,VWS V14.01,2013-05-19 21:54:00,
2013-05-19 16:55:00,80.7,75.8,29.69,East,99,4.2,13.2,85,0.00,,---,0.00,0.00,VWS V14.01,2013-05-19 21:55:00,
2013-05-19 16:59:00,80.9,76.0,29.69,SSE,161,2.2,9.2,85,0.00,,---,0.00,,VWS V14.01,2013-05-19 21:59:00,
2013-05-19 17:00:00,80.9,76.0,29.69,ESE,104,4.2,9.2,85,0.00,,---,0.00,0.00,VWS V14.01,2013-05-19 22:00:00,
2013-05-19 17:04:00,81.1,76.2,29.69,NE,52,3.2,6.2,85,0.00,,---,0.00,,VWS V14.01,2013-05-19 22:04:00,
2013-05-19 17:05:00,81.1,76.2,29.69,SE,126,8.2,10.2,85,0.00,,---,0.00,0.00,VWS V14.01,2013-05-19 22:05:00,
2013-05-19 17:09:00,80.9,76.0,29.69,SSE,158,9.2,9.2,85,0.00,,---,0.00,,VWS V14.01,2013-05-19 22:09:00,
2013-05-19 17:10:00,80.9,75.6,29.69,East,96,7.2,12.2,84,0.00,,---,0.00,0.00,VWS V14.01,2013-05-19 22:10:00,
2013-05-19 17:14:00,80.7,75.8,29.69,SE,132,6.2,10.2,85,0.00,,---,0.00,,VWS V14.01,2013-05-19 22:14:00,
2013-05-19 17:15:00,80.7,75.8,29.69,East,101,7.2,10.2,85,0.00,,---,0.00,0.00,VWS V14.01,2013-05-19 22:15:00,
2013-05-19 17:19:00,80.7,75.8,29.69,East,101,7.2,7.2,85,0.00,,---,0.00,,VWS V14.01,2013-05-19 22:19:00,
2013-05-19 17:20:00,80.5,75.6,29.69,SE,141,4.2,7.2,85,0.00,,---,0.00,0.00,VWS V14.01,2013-05-19 22:20:00,
2013-05-19 17:24:00,80.3,75.4,29.69,East,96,5.2,11.2,85,0.00,,---,0.00,,VWS V14.01,2013-05-19 22:24:00,
2013-05-19 17:25:00,80.3,75.7,29.69,ESE,106,3.2,11.2,86,0.00,,---,0.00,0.00,VWS V14.01,2013-05-19 22:25:00,
2013-05-19 17:29:00,80.5,75.9,29.69,ESE,107,4.2,6.2,86,0.00,,---,0.00,,VWS V14.01,2013-05-19 22:29:00,
2013-05-19 17:30:00,80.7,76.1,29.69,East,84,6.2,10.2,86,0.00,,---,0.00,0.00,VWS V14.01,2013-05-19 22:30:00,
2013-05-19 17:34:00,80.5,75.6,29.69,ESE,121,4.2,8.2,85,0.00,,---,0.00,,VWS V14.01,2013-05-19 22:34:00,
2013-05-19 17:35:00,80.5,75.6,29.69,East,88,4.2,8.2,85,0.00,,---,0.00,0.00,VWS V14.01,2013-05-19 22:35:00,
2013-05-19 17:39:00,80.3,75.7,29.69,ESE,106,5.2,10.2,86,0.00,,---,0.00,,VWS V14.01,2013-05-19 22:39:00,
2013-05-19 17:40:00,80.3,75.7,29.69,East,84,3.2,10.2,86,0.00,,---,0.00,0.00,VWS V14.01,2013-05-19 22:40:00,
2013-05-19 17:44:00,80.1,75.5,29.69,SE,128,8.2,12.2,86,0.00,,---,0.00,,VWS V14.01,2013-05-19 22:44:00,
2013-05-19 17:45:00,80.1,75.5,29.69,ESE,113,3.2,12.2,86,0.00,,---,0.00,0.00,VWS V14.01,2013-05-19 22:45:00,
2013-05-19 17:49:00,80.1,75.9,29.69,ESE,108,1.2,13.2,87,0.00,,---,0.00,,VWS V14.01,2013-05-19 22:49:00,
2013-05-19 17:50:00,80.1,75.9,29.69,ESE,109,7.2,13.2,87,0.00,,---,0.00,0.00,VWS V14.01,2013-05-19 22:50:00,
2013-05-19 17:54:00,79.9,75.7,29.69,ENE,74,3.2,7.2,87,0.00,,---,0.00,,VWS V14.01,2013-05-19 22:54:00,
2013-05-19 17:55:00,79.9,75.7,29.69,ESE,104,3.2,8.2,87,0.00,,---,0.00,0.00,VWS V14.01,2013-05-19 22:55:00,
2013-05-19 17:59:00,79.9,75.7,29.69,ENE,76,3.2,11.2,87,0.00,,---,0.00,,VWS V14.01,2013-05-19 22:59:00,
2013-05-19 18:00:00,79.8,75.6,29.69,East,83,3.2,11.2,87,0.00,,---,0.00,0.00,VWS V14.01,2013-05-19 23:00:00,
2013-05-19 18:04:00,79.8,75.6,29.69,ESE,114,5.2,7.2,87,0.00,,---,0.00,,VWS V14.01,2013-05-19 23:04:00,
2013-05-19 18:05:00,79.8,75.9,29.69,ESE,107,4.2,7.2,88,0.00,,---,0.00,0.00,VWS V14.01,2013-05-19 23:05:00,
2013-05-19 18:09:00,79.8,75.9,29.69,East,96,4.2,7.2,88,0.00,,---,0.00,,VWS V14.01,2013-05-19 23:09:00,
2013-05-19 18:10:00,79.8,75.9,29.69,East,82,8.2,11.2,88,0.00,,---,0.00,0.00,VWS V14.01,2013-05-19 23:10:00,
2013-05-19 18:14:00,79.6,75.7,29.69,ESE,113,6.2,10.2,88,0.00,,---,0.00,,VWS V14.01,2013-05-19 23:14:00,
2013-05-19 18:15:00,79.6,75.7,29.69,East,82,4.2,10.2,88,0.00,,---,0.00,0.00,VWS V14.01,2013-05-19 23:15:00,
2013-05-19 18:19:00,79.4,75.5,29.69,East,82,4.2,8.2,88,0.00,,---,0.00,,VWS V14.01,2013-05-19 23:19:00,
2013-05-19 18:20:00,79.4,75.5,29.69,SSW,193,2.2,8.2,88,0.00,,---,0.00,0.00,VWS V14.01,2013-05-19 23:20:00,
2013-05-19 18:24:00,79.6,75.7,29.69,East,100,6.2,9.2,88,0.00,,---,0.00,,VWS V14.01,2013-05-19 23:24:00,
2013-05-19 18:25:00,79.6,75.7,29.69,East,95,3.2,9.2,88,0.00,,---,0.00,0.00,VWS V14.01,2013-05-19 23:25:00,
2013-05-19 18:29:00,79.6,75.7,29.69,SSE,157,5.2,7.2,88,0.00,,---,0.00,,VWS V14.01,2013-05-19 23:29:00,
2013-05-19 18:30:00,79.6,76.1,29.69,SSW,197,2.2,12.2,89,0.00,,---,0.00,0.00,VWS V14.01,2013-05-19 23:30:00,
2013-05-19 18:34:00,79.4,75.9,29.69,East,88,4.2,7.2,89,0.00,,---,0.00,,VWS V14.01,2013-05-19 23:34:00,
2013-05-19 18:35:00,79.4,75.9,29.69,East,80,7.2,7.2,89,0.00,,---,0.00,0.00,VWS V14.01,2013-05-19 23:35:00,
2013-05-19 18:39:00,79.4,75.9,29.69,East,97,3.2,9.2,89,0.00,,---,0.00,,VWS V14.01,2013-05-19 23:39:00,
2013-05-19 18:40:00,79.4,75.9,29.69,East,83,5.2,9.2,89,0.00,,---,0.00,0.00,VWS V14.01,2013-05-19 23:40:00,
2013-05-19 18:44:00,79.4,75.9,29.69,SSE,168,2.2,8.2,89,0.00,,---,0.00,,VWS V14.01,2013-05-19 23:44:00,
2013-05-19 18:45:00,79.4,75.9,29.69,SSW,196,3.2,8.2,89,0.00,,---,0.00,0.00,VWS V14.01,2013-05-19 23:45:00,
2013-05-19 18:49:00,79.2,75.7,29.69,East,86,5.2,7.2,89,0.00,,---,0.00,,VWS V14.01,2013-05-19 23:49:00,
2013-05-19 18:50:00,79.2,75.7,29.69,SSE,150,2.2,7.2,89,0.00,,---,0.00,0.00,VWS V14.01,2013-05-19 23:50:00,
2013-05-19 18:54:00,79.2,75.7,29.69,East,98,2.2,6.2,89,0.00,,---,0.00,,VWS V14.01,2013-05-19 23:54:00,
2013-05-19 18:55:00,79.2,75.7,29.69,East,101,4.2,10.2,89,0.00,,---,0.00,0.00,VWS V14.01,2013-05-19 23:55:00,
2013-05-19 18:59:00,79.0,75.5,29.69,ESE,107,5.2,7.2,89,0.00,,---,0.00,,VWS V14.01,2013-05-19 23:59:00,
2013-05-19 19:00:00,79.0,75.5,29.70,SE,141,4.2,7.2,89,0.00,,---,0.00,0.00,VWS V14.01,2013-05-20 00:00:00,
2013-05-19 19:04:00,79.0,75.8,29.70,East,90,5.2,8.2,90,0.00,,---,0.00,,VWS V14.01,2013-05-20 00:04:00,
2013-05-19 19:05:00,78.8,75.6,29.70,ENE,69,4.2,8.2,90,0.00,,---,0.00,0.00,VWS V14.01,2013-05-20 00:05:00,
2013-05-19 19:09:00,78.8,75.6,29.70,ESE,104,5.2,10.2,90,0.00,,---,0.00,,VWS V14.01,2013-05-20 00:09:00,
2013-05-19 19:10:00,78.8,75.6,29.70,ESE,103,4.2,10.2,90,0.00,,---,0.00,0.00,VWS V14.01,2013-05-20 00:10:00,
2013-05-19 19:14:00,78.8,75.6,29.70,East,96,5.2,7.2,90,0.00,,---,0.00,,VWS V14.01,2013-05-20 00:14:00,
2013-05-19 19:15:00,78.8,75.6,29.70,East,98,5.2,7.2,90,0.00,,---,0.00,0.00,VWS V14.01,2013-05-20 00:15:00,
2013-05-19 19:19:00,78.6,75.8,29.70,ESE,121,5.2,8.2,91,0.00,,---,0.00,,VWS V14.01,2013-05-20 00:19:00,
2013-05-19 19:20:00,78.6,75.8,29.70,East,90,4.2,8.2,91,0.00,,---,0.00,0.00,VWS V14.01,2013-05-20 00:20:00,
2013-05-19 19:24:00,78.8,75.9,29.70,East,99,5.2,7.2,91,0.00,,---,0.00,,VWS V14.01,2013-05-20 00:24:00,
2013-05-19 19:25:00,78.8,75.9,29.70,ESE,107,4.2,7.2,91,0.00,,---,0.00,0.00,VWS V14.01,2013-05-20 00:25:00,
2013-05-19 19:29:00,78.8,75.9,29.70,ESE,110,4.2,7.2,91,0.00,,---,0.00,,VWS V14.01,2013-05-20 00:29:00,
2013-05-19 19:30:00,78.8,75.9,29.70,East,82,2.2,7.2,91,0.00,,---,0.00,0.00,VWS V14.01,2013-05-20 00:30:00,
2013-05-19 19:34:00,78.6,75.8,29.70,ENE,77,4.2,7.2,91,0.00,,---,0.00,,VWS V14.01,2013-05-20 00:34:00,
2013-05-19 19:35:00,78.6,75.8,29.70,South,175,6.2,8.2,91,0.00,,---,0.00,0.00,VWS V14.01,2013-05-20 00:35:00,
2013-05-19 19:39:00,78.6,75.8,29.70,East,98,7.2,7.2,91,0.00,,---,0.00,,VWS V14.01,2013-05-20 00:39:00,
2013-05-19 19:40:00,78.6,75.8,29.70,ESE,119,6.2,7.2,91,0.00,,---,0.00,0.00,VWS V14.01,2013-05-20 00:40:00,
2013-05-19 19:44:00,78.6,75.8,29.70,East,93,6.2,7.2,91,0.00,,---,0.00,,VWS V14.01,2013-05-20 00:44:00,
2013-05-19 19:45:00,78.6,75.8,29.70,ENE,61,4.2,7.2,91,0.00,,---,0.00,0.00,VWS V14.01,2013-05-20 00:45:00,
2013-05-19 19:49:00,78.5,75.7,29.70,East,91,5.2,10.2,91,0.00,,---,0.00,,VWS V14.01,2013-05-20 00:49:00,
2013-05-19 19:50:00,78.5,75.7,29.70,ENE,78,5.2,10.2,91,0.00,,---,0.00,0.00,VWS V14.01,2013-05-20 00:50:00,
2013-05-19 19:54:00,78.5,75.7,29.70,ESE,103,4.2,8.2,91,0.00,,---,0.00,,VWS V14.01,2013-05-20 00:54:00,
2013-05-19 19:55:00,78.5,75.7,29.70,SE,139,4.2,8.2,91,0.00,,---,0.00,0.00,VWS V14.01,2013-05-20 00:55:00,
2013-05-19 19:59:00,78.3,75.8,29.70,ESE,121,9.2,9.2,92,0.00,,---,0.00,,VWS V14.01,2013-05-20 00:59:00,
2013-05-19 20:00:00,78.3,75.8,29.71,ESE,103,5.2,10.2,92,0.00,,---,0.00,0.00,VWS V14.01,2013-05-20 01:00:00,
2013-05-19 20:04:00,78.3,75.8,29.71,ESE,102,5.2,8.2,92,0.00,,---,0.00,,VWS V14.01,2013-05-20 01:04:00,
2013-05-19 20:05:00,78.3,75.8,29.71,ENE,74,3.2,8.2,92,0.00,,---,0.00,0.00,VWS V14.01,2013-05-20 01:05:00,
2013-05-19 20:09:00,78.3,75.8,29.71,ESE,113,5.2,6.2,92,0.00,,---,0.00,,VWS V14.01,2013-05-20 01:09:00,
2013-05-19 20:10:00,78.3,75.8,29.71,SSE,160,6.2,6.2,92,0.00,,---,0.00,0.00,VWS V14.01,2013-05-20 01:10:00,
2013-05-19 20:14:00,78.1,75.6,29.71,SSE,150,3.2,6.2,92,0.00,,---,0.00,,VWS V14.01,2013-05-20 01:14:00,
2013-05-19 20:15:00,78.3,75.8,29.72,ESE,119,6.2,6.2,92,0.00,,---,0.00,0.00,VWS V14.01,2013-05-20 01:15:00,
2013-05-19 20:19:00,78.1,75.6,29.72,East,80,3.2,6.2,92,0.00,,---,0.00,,VWS V14.01,2013-05-20 01:19:00,
2013-05-19 20:20:00,78.1,75.6,29.72,ESE,113,4.2,7.2,92,0.00,,---,0.00,0.00,VWS V14.01,2013-05-20 01:20:00,
2013-05-19 20:24:00,78.1,75.6,29.72,East,100,4.2,6.2,92,0.00,,---,0.00,,VWS V14.01,2013-05-20 01:24:00,
2013-05-19 20:25:00,78.1,75.6,29.72,NE,53,2.2,6.2,92,0.00,,---,0.00,0.00,VWS V14.01,2013-05-20 01:25:00,
2013-05-19 20:29:00,78.1,75.6,29.72,East,94,2.2,8.2,92,0.00,,---,0.00,,VWS V14.01,2013-05-20 01:29:00,
2013-05-19 20:30:00,78.1,75.6,29.72,SSE,155,2.2,8.2,92,0.00,,---,0.00,0.00,VWS V14.01,2013-05-20 01:30:00,
2013-05-19 20:34:00,78.1,75.6,29.72,East,85,3.2,8.2,92,0.00,,---,0.00,,VWS V14.01,2013-05-20 01:34:00,
2013-05-19 20:35:00,78.1,75.6,29.72,SW,222,3.2,8.2,92,0.00,,---,0.00,0.00,VWS V14.01,2013-05-20 01:35:00,
2013-05-19 20:39:00,78.1,75.6,29.72,ESE,113,5.2,7.2,92,0.00,,---,0.00,,VWS V14.01,2013-05-20 01:39:00,
2013-05-19 20:40:00,77.9,75.4,29.72,ESE,116,4.2,8.2,92,0.00,,---,0.00,0.00,VWS V14.01,2013-05-20 01:40:00,
2013-05-19 20:44:00,77.9,75.4,29.72,ENE,76,4.2,6.2,92,0.00,,---,0.00,,VWS V14.01,2013-05-20 01:44:00,
2013-05-19 20:45:00,78.1,75.6,29.73,SSW,204,1.2,6.2,92,0.00,,---,0.00,0.00,VWS V14.01,2013-05-20 01:45:00,
2013-05-19 20:49:00,78.1,75.6,29.73,ESE,108,5.2,6.2,92,0.00,,---,0.00,,VWS V14.01,2013-05-20 01:49:00,
2013-05-19 20:50:00,78.1,75.6,29.73,ESE,113,3.2,6.2,92,0.00,,---,0.00,0.00,VWS V14.01,2013-05-20 01:50:00,
2013-05-19 20:54:00,77.9,75.4,29.73,East,82,4.2,8.2,92,0.00,,---,0.00,,VWS V14.01,2013-05-20 01:54:00,
2013-05-19 20:55:00,77.9,75.4,29.73,East,92,4.2,8.2,92,0.00,,---,0.00,0.00,VWS V14.01,2013-05-20 01:55:00,
2013-05-19 20:59:00,77.9,75.4,29.73,SE,126,4.2,7.2,92,0.00,,---,0.00,,VWS V14.01,2013-05-20 01:59:00,
2013-05-19 21:00:00,77.9,75.4,29.73,ESE,105,3.2,7.2,92,0.00,,---,0.00,0.00,VWS V14.01,2013-05-20 02:00:00,
2013-05-19 21:04:00,77.9,75.4,29.73,SE,126,2.2,7.2,92,0.00,,---,0.00,,VWS V14.01,2013-05-20 02:04:00,
2013-05-19 21:05:00,77.9,75.4,29.73,SE,143,3.2,7.2,92,0.00,,---,0.00,0.00,VWS V14.01,2013-05-20 02:05:00,
2013-05-19 21:09:00,77.9,75.4,29.73,ESE,109,6.2,7.2,92,0.00,,---,0.00,,VWS V14.01,2013-05-20 02:09:00,
2013-05-19 21:10:00,77.9,75.4,29.73,ESE,109,4.2,7.2,92,0.00,,---,0.00,0.00,VWS V14.01,2013-05-20 02:10:00,
2013-05-19 21:14:00,77.9,75.4,29.73,ESE,102,4.2,6.2,92,0.00,,---,0.00,,VWS V14.01,2013-05-20 02:14:00,
2013-05-19 21:15:00,77.9,75.4,29.74,East,96,4.2,6.2,92,0.00,,---,0.00,0.00,VWS V14.01,2013-05-20 02:15:00,
2013-05-19 21:19:00,77.9,75.4,29.74,East,84,6.2,8.2,92,0.00,,---,0.00,,VWS V14.01,2013-05-20 02:19:00,
2013-05-19 21:20:00,77.9,75.4,29.74,ENE,67,3.2,8.2,92,0.00,,---,0.00,0.00,VWS V14.01,2013-05-20 02:20:00,
2013-05-19 21:24:00,77.9,75.4,29.74,ESE,110,1.2,5.2,92,0.00,,---,0.00,,VWS V14.01,2013-05-20 02:24:00,
2013-05-19 21:25:00,77.9,75.4,29.74,SSW,209,4.2,6.2,92,0.00,,---,0.00,0.00,VWS V14.01,2013-05-20 02:25:00,
2013-05-19 21:29:00,77.9,75.4,29.74,ENE,72,2.2,6.2,92,0.00,,---,0.00,,VWS V14.01,2013-05-20 02:29:00,
2013-05-19 21:30:00,77.9,75.4,29.75,SSE,150,7.2,8.2,92,0.00,,---,0.00,0.00,VWS V14.01,2013-05-20 02:30:00,
2013-05-19 21:34:00,77.9,75.4,29.75,East,100,5.2,7.2,92,0.00,,---,0.00,,VWS V14.01,2013-05-20 02:34:00,
2013-05-19 21:35:00,77.9,75.4,29.75,SSE,165,3.2,7.2,92,0.00,,---,0.00,0.00,VWS V14.01,2013-05-20 02:35:00,
2013-05-19 21:39:00,77.9,75.4,29.75,East,84,1.2,13.2,92,0.00,,---,0.00,,VWS V14.01,2013-05-20 02:39:00,
2013-05-19 21:40:00,77.9,75.4,29.75,East,87,1.2,13.2,92,0.00,,---,0.00,0.00,VWS V14.01,2013-05-20 02:40:00,
2013-05-19 21:44:00,77.9,75.4,29.75,East,100,4.2,6.2,92,0.00,,---,0.00,,VWS V14.01,2013-05-20 02:44:00,
2013-05-19 21:45:00,77.9,75.4,29.75,SSW,213,3.2,6.2,92,0.00,,---,0.00,0.00,VWS V14.01,2013-05-20 02:45:00,
2013-05-19 21:49:00,77.9,75.4,29.75,NE,36,3.2,10.2,92,0.00,,---,0.00,,VWS V14.01,2013-05-20 02:49:00,
2013-05-19 21:50:00,77.9,75.4,29.75,ESE,117,5.2,10.2,92,0.00,,---,0.00,0.00,VWS V14.01,2013-05-20 02:50:00,
2013-05-19 21:54:00,77.9,75.4,29.75,SSE,155,3.2,7.2,92,0.00,,---,0.00,,VWS V14.01,2013-05-20 02:54:00,
2013-05-19 21:55:00,77.9,75.4,29.75,ESE,109,3.2,7.2,92,0.00,,---,0.00,0.00,VWS V14.01,2013-05-20 02:55:00,
2013-05-19 21:59:00,77.9,75.4,29.75,East,99,3.2,5.2,92,0.00,,---,0.00,,VWS V14.01,2013-05-20 02:59:00,
2013-05-19 22:00:00,77.7,75.2,29.75,SSE,160,3.2,6.2,92,0.00,,---,0.00,0.00,VWS V14.01,2013-05-20 03:00:00,
2013-05-19 22:04:00,77.7,75.2,29.75,East,92,5.2,7.2,92,0.00,,---,0.00,,VWS V14.01,2013-05-20 03:04:00,
2013-05-19 22:05:00,77.7,75.2,29.75,East,90,4.2,7.2,92,0.00,,---,0.00,0.00,VWS V14.01,2013-05-20 03:05:00,
2013-05-19 22:09:00,77.7,75.2,29.75,ESE,110,5.2,10.2,92,0.00,,---,0.00,,VWS V14.01,2013-05-20 03:09:00,
2013-05-19 22:10:00,77.7,75.2,29.75,SE,134,4.2,10.2,92,0.00,,---,0.00,0.00,VWS V14.01,2013-05-20 03:10:00,
2013-05-19 22:14:00,77.7,75.2,29.75,East,101,3.2,8.2,92,0.00,,---,0.00,,VWS V14.01,2013-05-20 03:14:00,
2013-05-19 22:15:00,77.7,75.2,29.75,ENE,67,5.2,8.2,92,0.00,,---,0.00,0.00,VWS V14.01,2013-05-20 03:15:00,
2013-05-19 22:19:00,77.7,75.2,29.75,East,99,4.2,7.2,92,0.00,,---,0.00,,VWS V14.01,2013-05-20 03:19:00,
2013-05-19 22:20:00,77.7,75.2,29.75,East,88,3.2,7.2,92,0.00,,---,0.00,0.00,VWS V14.01,2013-05-20 03:20:00,
2013-05-19 22:24:00,77.7,75.2,29.75,SE,142,2.2,7.2,92,0.00,,---,0.00,,VWS V14.01,2013-05-20 03:24:00,
2013-05-19 22:25:00,77.7,75.2,29.75,South,170,5.2,7.2,92,0.00,,---,0.00,0.00,VWS V14.01,2013-05-20 03:25:00,
2013-05-19 22:29:00,77.7,75.2,29.75,ESE,121,5.2,7.2,92,0.00,,---,0.00,,VWS V14.01,2013-05-20 03:29:00,
2013-05-19 22:30:00,77.7,75.2,29.76,SE,124,4.2,7.2,92,0.00,,---,0.00,0.00,VWS V14.01,2013-05-20 03:30:00,
2013-05-19 22:34:00,77.7,75.2,29.76,East,80,5.2,7.2,92,0.00,,---,0.00,,VWS V14.01,2013-05-20 03:34:00,
2013-05-19 22:35:00,77.7,75.2,29.76,ENE,63,1.2,7.2,92,0.00,,---,0.00,0.00,VWS V14.01,2013-05-20 03:35:00,
2013-05-19 22:39:00,77.7,75.2,29.76,ESE,112,2.2,6.2,92,0.00,,---,0.00,,VWS V14.01,2013-05-20 03:39:00,
2013-05-19 22:40:00,77.7,75.2,29.76,East,86,5.2,6.2,92,0.00,,---,0.00,0.00,VWS V14.01,2013-05-20 03:40:00,
2013-05-19 22:44:00,77.7,75.2,29.76,East,90,6.2,6.2,92,0.00,,---,0.00,,VWS V14.01,2013-05-20 03:44:00,
2013-05-19 22:45:00,77.7,75.2,29.76,South,182,4.2,10.2,92,0.00,,---,0.00,0.00,VWS V14.01,2013-05-20 03:45:00,
2013-05-19 22:49:00,77.7,75.2,29.76,East,99,5.2,6.2,92,0.00,,---,0.00,,VWS V14.01,2013-05-20 03:49:00,
2013-05-19 22:50:00,77.6,74.8,29.76,South,181,2.2,6.2,91,0.00,,---,0.00,0.00,VWS V14.01,2013-05-20 03:50:00,
2013-05-19 22:54:00,77.7,74.9,29.76,SE,132,2.2,6.2,91,0.00,,---,0.00,,VWS V14.01,2013-05-20 03:54:00,
2013-05-19 22:55:00,77.7,74.9,29.76,South,176,4.2,7.2,91,0.00,,---,0.00,0.00,VWS V14.01,2013-05-20 03:55:00,
2013-05-19 22:59:00,77.7,74.9,29.76,SE,131,4.2,10.2,91,0.00,,---,0.00,,VWS V14.01,2013-05-20 03:59:00,
2013-05-19 23:00:00,77.7,74.9,29.76,East,90,2.2,10.2,91,0.00,,---,0.00,0.00,VWS V14.01,2013-05-20 04:00:00,
2013-05-19 23:01:00,77.7,74.9,29.76,East,90,3.2,10.2,91,0.00,,---,0.00,,VWS V14.01,2013-05-20 04:01:00,
2013-05-19 23:05:00,77.7,74.9,29.76,SSE,147,4.2,6.2,91,0.00,,---,0.00,0.00,VWS V14.01,2013-05-20 04:05:00,
2013-05-19 23:06:00,77.7,74.9,29.76,SSE,147,4.2,6.2,91,0.00,,---,0.00,,VWS V14.01,2013-05-20 04:06:00,
2013-05-19 23:10:00,77.7,74.9,29.76,SSE,152,4.2,10.2,91,0.00,,---,0.00,0.00,VWS V14.01,2013-05-20 04:10:00,
2013-05-19 23:11:00,77.7,74.9,29.76,East,88,3.2,10.2,91,0.00,,---,0.00,,VWS V14.01,2013-05-20 04:11:00,
2013-05-19 23:15:00,77.7,74.9,29.76,East,91,4.2,7.2,91,0.00,,---,0.00,0.00,VWS V14.01,2013-05-20 04:15:00,
2013-05-19 23:16:00,77.7,74.9,29.76,South,181,4.2,7.2,91,0.00,,---,0.00,,VWS V14.01,2013-05-20 04:16:00,
2013-05-19 23:20:00,77.7,74.9,29.76,East,91,4.2,6.2,91,0.00,,---,0.00,0.00,VWS V14.01,2013-05-20 04:20:00,
2013-05-19 23:21:00,77.7,74.9,29.76,East,90,3.2,6.2,91,0.00,,---,0.00,,VWS V14.01,2013-05-20 04:21:00,
2013-05-19 23:25:00,77.7,74.9,29.76,SE,135,1.2,9.2,91,0.00,,---,0.00,0.00,VWS V14.01,2013-05-20 04:25:00,
2013-05-19 23:26:00,77.7,74.9,29.76,SE,135,1.2,9.2,91,0.00,,---,0.00,,VWS V14.01,2013-05-20 04:26:00,
2013-05-19 23:30:00,77.7,74.9,29.76,SSE,148,5.2,8.2,91,0.00,,---,0.00,0.00,VWS V14.01,2013-05-20 04:30:00,
2013-05-19 23:31:00,77.7,74.9,29.76,SSE,153,8.2,8.2,91,0.00,,---,0.00,,VWS V14.01,2013-05-20 04:31:00,
2013-05-19 23:35:00,77.7,74.9,29.76,SE,130,2.2,6.2,91,0.00,,---,0.00,0.00,VWS V14.01,2013-05-20 04:35:00,
2013-05-19 23:36:00,77.7,74.9,29.76,SE,130,3.2,6.2,91,0.00,,---,0.00,,VWS V14.01,2013-05-20 04:36:00,
2013-05-19 23:40:00,77.7,75.2,29.76,ENE,74,4.2,8.2,92,0.00,,---,0.00,0.00,VWS V14.01,2013-05-20 04:40:00,
2013-05-19 23:41:00,77.7,75.2,29.76,ENE,74,5.2,8.2,92,0.00,,---,0.00,,VWS V14.01,2013-05-20 04:41:00,
2013-05-19 23:45:00,77.7,75.2,29.75,SSE,161,2.2,6.2,92,0.00,,---,0.00,0.00,VWS V14.01,2013-05-20 04:45:00,
2013-05-19 23:46:00,77.7,75.2,29.75,SSE,161,3.2,6.2,92,0.00,,---,0.00,,VWS V14.01,2013-05-20 04:46:00,
2013-05-19 23:50:00,77.7,75.2,29.75,SE,135,5.2,7.2,92,0.00,,---,0.00,0.00,VWS V14.01,2013-05-20 04:50:00,
2013-05-19 23:51:00,77.7,75.2,29.75,ESE,110,3.2,7.2,92,0.00,,---,0.00,,VWS V14.01,2013-05-20 04:51:00,
2013-05-19 23:55:00,77.6,75.1,29.75,East,98,5.2,7.2,92,0.00,,---,0.00,0.00,VWS V14.01,2013-05-20 04:55:00,
2013-05-19 23:56:00,77.6,75.1,29.75,East,97,7.2,7.2,92,0.00,,---,0.00,,VWS V14.01,2013-05-20 04:56:00,